Wind_Speed
17 14 7 1 5 9 10 10 11 13 15 16 18 19 18 19 19 18 18 13 10 10 9 9 10 11 13 13 13 12 10 10 7 8 12 16 12 8 8 6 3 9 8
10 12 4 1 5 8 11 11 12 13 14 14 14 17 18 19 20 20 14 11 9 9 8 10 11 13 14 13 13 12 12 11 8 8 5 1 13 12 11 10 10 9 8
13 8 2 2 4 7 9 11 12 11 10 10 11 12 15 16 16 13 10 9 8 9 9 9 11 13 14 14 12 11 12 9 8 2 7 17 12 12 12 11 9 7 7
12 4 1 3 6 7 9 10 10 10 9 8 8 9 11 12 11 10 9 9 9 9 8 9 11 12 13 13 12 10 9 9 7 6 9 9 12 11 10 9 9 9 9
8 5 2 6 6 6 7 9 9 8 8 7 7 9 10 10 9 9 9 10 10 10 9 10 12 14 13 14 12 11 10 9 8 7 8 8 9 9 10 9 9 8 7
2 3 2 8 7 4 5 6 7 7 7 7 7 7 7 6 6 8 9 11 12 12 11 11 11 12 14 12 13 11 9 10 11 10 9 9 9 8 9 9 9 8 7
7 5 7 6 5 4 5 5 6 5 6 6 5 4 3 3 6 8 10 12 13 13 14 15 13 13 17 14 14 9 6 11 12 10 10 10 10 10 9 8 9 8 8
6 5 5 2 4 4 3 4 5 5 5 5 4 4 3 5 7 9 10 12 12 13 16 18 17 14 15 13 13 9 9 14 12 11 10 10 10 9 8 8 9 9 8
13 9 6 4 6 6 4 4 5 4 5 5 5 4 4 5 8 9 10 10 11 13 14 18 20 15 15 13 13 13 13 13 11 11 11 11 10 8 8 9 8 6 6
15 13 10 6 7 7 3 5 4 4 4 4 4 4 4 5 7 9 10 9 11 10 10 16 20 17 17 15 17 12 14 11 12 12 14 13 11 10 10 8 8 7 6
19 19 15 12 8 9 6 6 6 5 4 4 4 4 4 5 6 8 10 10 9 9 10 16 20 18 16 15 20 15 11 8 13 13 13 12 12 10 11 10 9 6 5
27 23 20 16 12 11 12 9 8 8 6 4 4 4 4 4 6 7 9 10 10 9 10 17 18 17 17 15 20 15 18 18 15 15 12 13 13 13 12 11 10 7 6
31 29 24 19 16 15 16 13 11 11 9 6 5 4 3 4 4 4 7 9 10 8 9 17 16 16 16 16 15 17 16 18 17 16 13 12 15 14 14 13 11 9 9
36 31 28 22 18 19 19 18 15 14 12 9 7 6 4 4 3 3 5 9 10 8 9 13 16 17 16 15 14 14 10 17 16 17 14 15 15 15 17 15 13 12 10
41 35 33 28 25 23 24 24 22 18 16 13 10 8 7 4 4 4 4 6 10 12 13 14 16 18 17 15 14 14 15 18 21 19 17 18 16 17 17 16 15 12 11
47 45 40 35 30 27 26 28 27 24 19 17 15 11 11 7 5 3 4 4 9 13 16 17 19 18 17 16 17 14 16 21 20 20 23 21 17 17 17 16 15 14 12
37 50 48 41 36 33 31 30 31 29 25 21 18 16 14 12 8 6 4 5 4 12 17 20 22 24 23 20 18 16 16 20 22 23 25 22 23 18 18 16 16 16 14
36 40 50 46 43 40 34 30 28 29 28 25 23 20 18 16 14 11 8 7 5 6 14 20 24 26 24 21 20 18 17 18 21 21 20 22 21 18 19 18 18 18 17
39 41 40 42 46 45 38 33 27 27 26 27 25 24 22 20 20 17 14 12 9 7 7 14 19 24 25 22 21 20 19 19 20 22 23 24 26 20 18 20 18 19 19
43 44 44 45 42 40 44 39 35 31 29 26 22 23 25 24 24 23 20 18 16 11 9 9 12 19 23 24 23 22 21 23 25 23 24 28 27 21 20 19 19 19 19
45 39 45 48 45 39 47 45 42 39 35 30 25 23 21 24 26 26 24 23 21 17 12 11 11 14 20 24 26 25 25 21 18 23 26 21 26 24 23 22 22 20 20
48 40 41 43 46 47 40 46 45 40 40 33 27 27 24 20 21 27 27 26 25 23 19 16 14 13 15 21 24 24 27 23 21 21 25 24 26 26 24 24 24 22 21
52 42 35 42 41 47 47 44 43 43 42 40 34 29 28 26 23 22 28 29 28 27 24 21 18 16 15 17 22 26 27 24 21 19 20 24 22 33 31 26 26 24 24
53 44 39 34 40 45 47 51 51 48 45 41 32 34 32 32 27 21 23 26 31 31 28 26 22 19 19 18 20 25 26 26 24 23 23 19 27 23 29 29 28 26 26
48 45 38 39 35 46 48 45 53 56 49 40 36 39 35 33 30 24 23 26 29 31 32 30 26 23 21 21 20 20 23 29 29 27 23 22 25 29 31 33 35 29 29
35 27 37 36 31 41 52 47 47 53 53 48 44 43 38 35 32 27 23 25 29 30 33 33 28 26 24 23 22 23 22 30 32 29 27 25 25 30 35 40 42 33 28
Wind_Direction
241 230 205 266 330 357 352 323 297 289 283 278 272 268 265 268 274 280 288 286 270 248 232 231 213 203 200 199 205 207 200 201 205 209 174 141 140 145 126 135 161 154 158
219 220 201 277 346 3 351 329 310 300 296 291 284 274 270 273 278 281 282 273 261 257 256 235 213 206 201 200 205 204 200 203 208 226 262 194 140 145 135 158 173 168 168
211 208 209 329 358 3 350 330 312 301 294 291 284 276 274 273 273 274 268 258 254 254 253 230 221 214 213 204 209 212 210 201 189 130 230 210 146 151 158 166 174 175 181
224 209 256 18 13 15 355 333 314 301 292 284 272 265 264 262 260 258 249 245 245 249 251 234 219 218 221 218 209 209 193 193 192 146 150 126 157 166 168 174 176 174 181
228 195 59 19 21 23 2 336 318 302 289 270 257 254 251 253 256 250 243 240 241 241 228 218 221 223 218 219 209 196 194 191 174 170 169 158 171 179 177 180 180 187 192
248 194 351 346 355 7 7 332 309 297 283 263 251 255 256 258 252 244 241 245 246 246 240 219 217 229 222 204 200 192 210 191 189 183 179 181 184 185 183 188 192 193 203
304 298 313 323 314 337 360 320 294 286 281 271 254 243 229 221 228 236 242 247 247 245 240 230 225 219 240 201 201 190 202 211 190 190 190 187 190 196 197 200 203 214 225
271 281 322 339 317 320 341 304 290 291 286 275 256 241 218 213 222 236 247 250 253 251 253 236 227 217 229 211 209 207 216 213 195 194 195 197 196 200 205 210 221 229 231
262 255 256 257 318 302 305 279 277 280 285 273 249 243 237 225 225 233 246 256 252 267 260 219 218 217 223 205 208 202 212 215 200 196 196 207 205 209 220 227 226 226 248
251 253 236 250 294 264 271 271 253 262 271 272 253 249 259 260 245 240 243 247 252 272 247 216 212 201 218 222 228 223 217 211 206 199 202 208 210 213 227 225 217 243 259
241 254 232 253 266 256 249 274 264 263 281 283 266 256 263 270 259 247 250 241 250 271 238 216 208 197 198 220 210 219 206 225 206 199 202 216 220 221 229 217 228 246 260
225 226 222 241 244 248 253 255 264 260 262 273 271 262 269 284 277 254 249 241 242 254 240 212 211 216 209 209 223 232 236 214 210 213 217 222 226 223 224 219 230 249 261
229 225 221 221 239 245 240 244 255 259 252 258 266 256 271 297 311 269 245 236 237 235 208 205 209 198 213 219 224 218 218 224 215 225 226 228 219 221 222 228 240 254 264
230 232 226 227 239 241 246 245 244 251 249 244 253 256 250 288 321 341 261 234 226 212 190 205 208 207 221 221 217 225 236 217 231 233 231 217 215 221 228 232 237 245 258
232 231 233 230 237 242 243 244 244 241 243 239 242 248 247 263 306 350 340 253 224 210 204 202 211 215 224 225 232 236 225 229 234 232 229 222 225 225 233 236 239 244 249
230 232 236 234 238 244 248 248 250 246 236 236 238 241 247 245 275 320 348 326 234 216 209 210 216 220 218 229 230 237 232 235 243 241 233 218 224 225 233 237 242 244 243
241 238 240 238 239 244 249 242 246 247 243 237 237 240 241 247 249 265 309 329 262 221 215 212 214 215 219 232 239 242 237 244 240 251 247 227 226 226 230 236 245 246 240
239 240 239 241 241 244 242 236 241 241 242 238 236 238 241 245 245 252 262 289 308 258 223 222 221 222 226 231 250 254 251 256 250 250 254 239 209 228 235 238 244 247 248
237 236 238 237 240 244 234 227 230 232 236 234 235 237 240 242 248 249 254 262 276 288 260 238 233 232 235 239 246 254 257 263 254 250 245 223 207 221 234 244 248 249 246
235 229 231 234 238 244 231 226 228 227 230 231 237 239 239 242 246 250 252 256 263 268 277 271 245 240 242 242 244 247 253 261 255 244 241 223 231 216 232 236 249 251 242
234 229 224 230 236 236 231 225 227 227 228 233 237 231 234 241 242 247 249 252 256 260 261 264 257 245 243 244 244 248 252 255 251 253 243 243 222 221 230 237 247 245 236
233 231 222 226 230 232 232 231 226 226 227 227 233 234 240 241 245 245 248 251 254 254 256 262 267 267 256 249 250 250 254 251 253 249 245 242 249 239 235 245 246 241 235
230 233 224 219 228 230 232 227 230 228 226 225 234 233 242 244 245 248 244 248 253 253 253 256 259 266 271 259 254 253 256 259 256 254 250 243 256 250 236 244 250 241 235
228 227 229 222 220 225 232 231 229 231 229 233 233 235 239 243 244 251 247 247 249 250 250 251 254 261 264 268 259 251 259 259 253 252 249 267 243 267 257 236 246 246 237
226 225 228 224 230 221 225 231 234 236 233 231 237 238 239 242 243 245 248 245 248 248 248 246 248 256 266 268 274 256 249 262 261 258 258 258 259 261 269 260 249 240 237
219 218 223 223 232 223 223 233 235 235 236 234 235 234 238 245 240 240 247 251 250 250 244 245 243 249 258 265 273 271 254 252 258 263 268 267 265 258 266 271 252 231 236
Height
3139 3139 3139 3139 3139 3139 3139 3139 3139 3139 3139 3139 3140 3141 3143 3143 3143 3144 3145 3145 3146 3147 3148 3149 3150 3151 3153 3155 3156 3157 3160 3161 3162 3162 3157 3158 3160 3163 3166 3168 3170 3171 3172
3137 3139 3139 3139 3138 3137 3138 3138 3138 3138 3137 3137 3138 3138 3140 3140 3141 3142 3143 3143 3144 3146 3147 3148 3149 3150 3152 3154 3156 3157 3159 3160 3162 3163 3162 3163 3161 3164 3166 3168 3172 3173 3173
3137 3138 3137 3137 3137 3136 3136 3137 3137 3137 3136 3136 3136 3137 3138 3138 3139 3140 3141 3142 3143 3144 3145 3147 3149 3151 3152 3153 3156 3157 3159 3160 3161 3163 3163 3163 3162 3166 3168 3170 3172 3172 3173
3137 3137 3137 3137 3136 3135 3136 3136 3137 3137 3136 3135 3135 3136 3136 3136 3137 3138 3139 3140 3141 3143 3144 3146 3148 3150 3152 3154 3156 3158 3158 3160 3161 3162 3163 3164 3167 3167 3169 3170 3172 3173 3174
3134 3134 3136 3136 3136 3135 3135 3136 3136 3136 3136 3134 3134 3134 3134 3135 3136 3137 3138 3139 3140 3142 3143 3145 3147 3149 3151 3154 3156 3157 3158 3160 3161 3162 3164 3165 3167 3168 3170 3171 3173 3174 3174
3132 3133 3133 3134 3135 3135 3135 3135 3135 3135 3135 3134 3133 3134 3133 3134 3135 3135 3136 3138 3139 3140 3142 3144 3146 3149 3151 3152 3155 3156 3159 3160 3159 3162 3163 3165 3167 3169 3170 3171 3172 3173 3173
3132 3133 3132 3132 3132 3133 3133 3135 3134 3134 3134 3134 3134 3134 3133 3133 3134 3134 3135 3136 3137 3139 3140 3142 3145 3147 3151 3151 3154 3155 3158 3161 3161 3162 3164 3166 3167 3169 3170 3171 3172 3172 3173
3131 3132 3132 3132 3131 3132 3132 3134 3134 3134 3133 3133 3134 3134 3133 3133 3133 3133 3134 3135 3136 3137 3138 3140 3143 3146 3149 3151 3154 3154 3157 3160 3160 3162 3164 3165 3167 3168 3170 3171 3172 3173 3173
3129 3130 3130 3131 3132 3131 3132 3133 3133 3133 3133 3133 3133 3133 3132 3132 3131 3132 3132 3133 3135 3135 3135 3136 3141 3145 3149 3151 3152 3154 3157 3159 3160 3162 3163 3164 3166 3167 3170 3171 3172 3173 3173
3127 3128 3128 3130 3131 3131 3131 3132 3132 3133 3133 3132 3132 3132 3131 3131 3130 3130 3131 3132 3133 3133 3133 3135 3139 3142 3146 3150 3152 3153 3156 3158 3159 3160 3162 3164 3166 3167 3169 3170 3171 3172 3172
3124 3125 3126 3128 3129 3129 3130 3130 3131 3132 3132 3132 3131 3131 3131 3130 3130 3129 3129 3130 3131 3131 3133 3133 3137 3141 3144 3148 3151 3154 3155 3156 3158 3160 3161 3164 3165 3166 3168 3169 3170 3171 3172
3119 3120 3123 3125 3127 3127 3128 3128 3129 3130 3131 3131 3131 3130 3130 3130 3129 3128 3127 3128 3129 3130 3130 3132 3135 3139 3143 3147 3151 3153 3154 3157 3158 3160 3160 3162 3164 3165 3167 3168 3169 3170 3171
3116 3117 3119 3121 3124 3125 3125 3126 3127 3128 3129 3130 3130 3129 3129 3129 3128 3127 3127 3127 3128 3129 3129 3131 3135 3139 3143 3147 3149 3151 3153 3155 3157 3158 3159 3160 3163 3164 3166 3167 3168 3169 3170
3112 3114 3115 3118 3119 3121 3123 3124 3125 3125 3127 3128 3129 3129 3128 3129 3128 3126 3126 3126 3127 3128 3130 3133 3136 3139 3143 3145 3147 3149 3150 3153 3154 3156 3158 3159 3161 3162 3164 3165 3166 3168 3169
3106 3109 3110 3112 3114 3116 3119 3120 3121 3122 3124 3125 3126 3127 3127 3127 3127 3126 3125 3125 3125 3127 3129 3132 3136 3139 3141 3143 3145 3147 3148 3149 3150 3151 3154 3157 3159 3160 3162 3163 3165 3166 3167
3097 3099 3104 3106 3109 3111 3114 3117 3119 3120 3120 3122 3123 3125 3126 3125 3126 3126 3125 3124 3124 3126 3128 3131 3134 3137 3139 3141 3143 3144 3145 3146 3147 3147 3150 3153 3156 3158 3160 3161 3163 3164 3164
3090 3093 3093 3098 3101 3104 3107 3109 3113 3115 3117 3118 3120 3121 3123 3123 3124 3125 3125 3125 3124 3125 3126 3128 3131 3133 3135 3137 3140 3141 3142 3140 3144 3145 3146 3148 3151 3155 3157 3159 3160 3161 3162
3078 3083 3085 3089 3092 3096 3099 3102 3105 3109 3112 3114 3115 3117 3119 3121 3122 3123 3124 3124 3124 3124 3125 3126 3127 3130 3132 3134 3135 3138 3139 3139 3139 3141 3143 3144 3148 3152 3154 3156 3157 3158 3158
3065 3072 3077 3080 3083 3087 3092 3095 3098 3102 3105 3108 3110 3113 3115 3117 3119 3120 3122 3122 3123 3122 3122 3123 3125 3127 3129 3130 3132 3133 3135 3136 3136 3138 3139 3140 3143 3148 3151 3152 3153 3154 3155
3051 3056 3065 3069 3073 3078 3083 3087 3090 3094 3098 3102 3105 3107 3110 3112 3114 3116 3118 3119 3120 3121 3121 3121 3121 3123 3125 3126 3127 3129 3130 3131 3132 3134 3134 3136 3136 3143 3146 3148 3150 3150 3152
3037 3042 3048 3056 3062 3067 3071 3075 3081 3086 3091 3096 3099 3101 3104 3107 3109 3111 3112 3114 3116 3118 3118 3119 3119 3120 3121 3122 3123 3125 3126 3128 3128 3130 3131 3132 3131 3138 3142 3143 3145 3146 3148
3022 3028 3032 3041 3050 3056 3061 3067 3072 3080 3084 3090 3093 3096 3099 3101 3103 3105 3107 3109 3111 3114 3115 3116 3117 3117 3118 3118 3119 3121 3121 3125 3125 3126 3128 3131 3132 3134 3137 3139 3141 3142 3144
3007 3015 3021 3027 3037 3045 3051 3057 3063 3069 3074 3079 3084 3089 3093 3096 3098 3099 3101 3103 3105 3108 3111 3112 3113 3114 3115 3115 3115 3117 3116 3118 3122 3124 3125 3128 3129 3130 3132 3134 3137 3138 3139
2992 3004 3011 3017 3023 3031 3038 3045 3051 3058 3064 3070 3078 3082 3085 3089 3092 3093 3095 3097 3099 3102 3105 3107 3108 3109 3110 3111 3110 3111 3111 3114 3115 3118 3120 3122 3122 3125 3126 3128 3131 3133 3135
2980 2992 3000 3008 3012 3018 3027 3036 3041 3047 3057 3064 3069 3074 3078 3082 3085 3087 3089 3090 3093 3094 3098 3100 3102 3103 3105 3106 3106 3106 3108 3109 3110 3112 3115 3117 3119 3120 3121 3120 3125 3127 3129
2972 2980 2989 2995 3002 3008 3018 3026 3030 3037 3047 3054 3059 3064 3069 3074 3078 3080 3083 3084 3086 3087 3090 3093 3096 3098 3099 3100 3101 3101 3101 3104 3105 3107 3109 3112 3114 3115 3116 3115 3116 3120 3122